M0NPQ Weather Reports


Display with metric or nautical units.
time (UTC)temp
F
wind
direction
speed
MPH
gust
MPH
rain 1hr
in
rain 24hr
in
rain mn
in
humidity
%
barometer
mb
20260506090903 52 0 0.0 0.0 0.00 0.00 0.00 83 1011.4
20260506090003 52 270 0.0 1.0 0.00 0.00 0.00 83 1011.5
20260506085403 52 0 0.0 0.0 0.00 0.00 0.00 83 1011.4
20260506084503 53 0 0.0 0.0 0.00 0.00 0.00 83 1011.5
20260506083604 53 262 0.0 2.0 0.00 0.00 0.00 82 1011.4
20260506082703 53 90 0.0 1.0 0.00 0.00 0.00 81 1011.3
20260506081803 53 161 0.0 2.0 0.00 0.00 0.00 81 1011.3
20260506080905 53 93 0.0 1.0 0.00 0.00 0.00 81 1011.3
20260506072703 52 67 0.0 2.0 0.00 0.00 0.00 82 1011.0
20260506071804 52 55 0.0 1.0 0.00 0.00 0.00 82 1011.1
20260506070905 52 78 0.0 1.0 0.00 0.00 0.00 82 1011.1
20260506061804 51 85 0.0 2.0 0.00 0.00 0.00 82 1010.6
20260506060903 51 90 0.0 1.0 0.00 0.00 0.00 82 1010.7
20260506050903 50 66 0.0 1.0 0.00 0.00 0.00 86 1010.4
20260506044503 50 0 0.0 0.0 0.00 0.00 0.00 84 1010.4
20260506043603 50 66 0.0 1.0 0.00 0.00 0.00 84 1010.6
20260506042704 50 67 0.0 1.0 0.00 0.00 0.00 83 1010.6
20260506041803 50 70 0.0 1.0 0.00 0.00 0.00 83 1010.5
20260506040903 50 72 0.0 1.0 0.00 0.00 0.00 83 1010.6
20260506040003 50 65 0.0 1.0 0.00 0.00 0.00 83 1010.6
20260506035405 50 64 0.0 2.0 0.00 0.00 0.00 83 1010.6
20260506034719 50 67 0.0 2.0 0.00 0.00 0.00 83 1010.6
20260506033603 50 66 0.0 1.0 0.00 0.00 0.00 83 1010.7
20260506032704 50 70 0.0 1.0 0.00 0.00 0.00 83 1010.9
20260506031803 50 66 0.0 1.0 0.00 0.00 0.00 83 1011.0
20260506030904 50 66 0.0 1.0 0.00 0.00 0.00 83 1011.1
20260506030217 50 73 0.0 1.0 0.00 0.00 0.00 84 1011.1
20260506025403 50 134 0.0 1.0 0.00 0.00 0.00 84 1011.1
20260506024503 50 0 0.0 0.0 0.00 0.00 0.00 83 1011.2
20260506023603 50 60 0.0 2.0 0.00 0.00 0.00 83 1011.1
20260506022919 50 51 0.0 1.0 0.00 0.00 0.00 84 1011.2
20260506021805 50 0 0.0 0.0 0.00 0.00 0.00 85 1011.4
20260506020904 50 62 0.0 1.0 0.00 0.00 0.00 85 1011.2
20260506020003 50 0 0.0 0.0 0.00 0.00 0.00 85 1011.3
20260506015404 50 69 0.0 1.0 0.00 0.00 0.00 85 1011.3
20260506014503 50 58 0.0 1.0 0.00 0.00 0.00 84 1011.4
20260506013603 50 63 0.0 1.0 0.00 0.00 0.00 84 1011.7
20260506012703 50 63 0.0 1.0 0.00 0.00 0.00 83 1011.7
20260506011805 50 65 0.0 1.0 0.00 0.00 0.00 83 1011.7
20260506010903 51 0 0.0 0.0 0.00 0.00 0.00 83 1011.5
20260506010005 50 69 0.0 1.0 0.00 0.00 0.00 83 1011.8
20260506005405 50 67 0.0 2.0 0.00 0.00 0.00 83 1011.5
20260506004718 50 68 0.0 2.0 0.00 0.00 0.00 83 1011.7
20260506003604 51 81 0.0 2.0 0.00 0.00 0.00 83 1011.7
20260506002704 51 72 0.0 1.0 0.00 0.00 0.00 82 1011.6
20260506002020 51 73 0.0 1.0 0.00 0.00 0.00 83 1011.9
20260506000904 51 66 0.0 1.0 0.00 0.00 0.00 83 1012.0
20260506000003 51 74 0.0 1.0 0.00 0.00 0.00 83 1012.0
20260505235403 51 69 0.0 1.0 0.00 0.00 0.00 83 1012.0
20260505234503 51 57 0.0 1.0 0.00 0.00 0.00 83 1012.0
20260505233603 51 0 0.0 0.0 0.00 0.00 0.00 82 1012.3
20260505232704 51 62 0.0 1.0 0.00 0.00 0.00 82 1012.3
20260505231803 51 89 0.0 1.0 0.00 0.00 0.00 82 1012.2
20260505231117 51 70 0.0 2.0 0.00 0.00 0.00 82 1012.4
20260505230004 51 98 0.0 1.0 0.00 0.00 0.00 83 1012.5
20260505225404 51 107 0.0 1.0 0.00 0.00 0.00 83 1012.4
20260505224503 51 61 0.0 1.0 0.00 0.00 0.00 84 1012.6
20260505223605 51 78 0.0 2.0 0.00 0.00 0.00 83 1012.5
20260505222920 51 73 0.0 2.0 0.00 0.00 0.00 83 1012.5
20260505222017 51 85 0.0 1.0 0.00 0.00 0.00 83 1012.3
20260505220903 51 76 0.0 1.0 0.00 0.00 0.00 83 1012.3
20260505220003 51 75 0.0 1.0 0.00 0.00 0.00 82 1012.6
20260505215403 51 92 0.0 1.0 0.00 0.00 0.00 82 1012.6
20260505214503 51 83 0.0 1.0 0.00 0.00 0.00 82 1012.5
20260505213603 51 0 0.0 0.0 0.00 0.00 0.00 81 1012.5
20260505212703 51 67 0.0 1.0 0.00 0.00 0.00 80 1012.7
20260505211803 51 74 0.0 2.0 0.00 0.00 0.00 77 1012.7
20260505210904 52 68 0.0 1.0 0.00 0.00 0.00 77 1012.6
20260505210004 52 0 0.0 0.0 0.00 0.00 0.00 77 1012.7
20260505205403 52 63 0.0 1.0 0.00 0.00 0.00 77 1012.7
20260505204503 52 76 0.0 1.0 0.00 0.00 0.00 76 1012.7
20260505203603 52 72 0.0 1.0 0.00 0.00 0.00 76 1012.7
20260505202703 52 66 0.0 2.0 0.00 0.00 0.00 77 1012.8
20260505201803 52 68 0.0 1.0 0.00 0.00 0.00 79 1012.6
20260505201117 52 63 0.0 1.0 0.00 0.00 0.00 79 1012.6
20260505200005 52 77 0.0 1.0 0.00 0.00 0.00 81 1012.4
20260505195403 52 75 0.0 1.0 0.00 0.00 0.00 81 1012.6
20260505194503 52 69 0.0 1.0 0.00 0.00 0.00 81 1012.3
20260505193604 52 77 0.0 1.0 0.00 0.00 0.00 80 1012.4
20260505192704 52 76 0.0 1.0 0.00 0.00 0.00 80 1012.1
20260505191803 52 70 0.0 1.0 0.00 0.00 0.00 80 1012.4
20260505190903 52 71 0.0 1.0 0.00 0.00 0.00 80 1012.2
20260505190003 53 67 0.0 2.0 0.00 0.00 0.00 79 1012.1
20260505185403 53 89 0.0 2.0 0.00 0.00 0.00 79 1012.1
20260505184504 53 82 0.0 1.0 0.00 0.00 0.00 79 1012.0
20260505183603 53 0 0.0 0.0 0.00 0.00 0.00 78 1012.0
20260505182705 53 112 0.0 1.0 0.00 0.00 0.00 78 1012.0
20260505181805 54 95 0.0 1.0 0.00 0.00 0.00 77 1012.0
20260505180905 54 76 0.0 1.0 0.00 0.00 0.00 77 1012.1
20260505180219 53 73 0.0 1.0 0.00 0.00 0.00 77 1012.2
20260505175620 54 15 0.0 2.0 0.00 0.00 0.00 77 1012.2
20260505174504 54 260 0.0 2.0 0.00 0.00 0.00 76 1012.2
20260505173603 54 279 0.0 1.0 0.00 0.00 0.00 75 1012.1
20260505172704 55 254 0.0 2.0 0.00 0.00 0.00 74 1012.0
20260505171803 54 87 0.0 1.0 0.00 0.00 0.00 74 1012.3
20260505170903 55 75 0.0 1.0 0.00 0.00 0.00 74 1012.1
20260505170003 55 84 0.0 2.0 0.00 0.00 0.00 73 1012.0
20260505165403 55 89 0.0 2.0 0.00 0.00 0.00 73 1012.1
20260505164505 55 67 0.0 1.0 0.00 0.00 0.00 73 1012.1
20260505163603 55 281 0.0 2.0 0.00 0.00 0.00 73 1012.1
20260505162703 55 299 0.0 2.0 0.00 0.00 0.00 72 1012.3
20260505161808 56 272 0.0 2.0 0.00 0.00 0.00 70 1012.1
20260505160903 57 271 0.0 1.0 0.00 0.00 0.00 68 1012.2
20260505152705 56 263 1.0 4.0 0.00 0.00 0.00 68 1012.5
20260505151804 57 252 0.0 2.0 0.00 0.00 0.00 67 1012.5
20260505150904 57 269 1.0 3.0 0.00 0.00 0.00 67 1012.2
20260505124503 59 286 0.0 4.0 0.00 0.00 0.00 65 1012.8
20260505123819 59 89 0.0 3.0 0.00 0.00 0.00 64 1012.8
20260505122705 59 70 0.0 2.0 0.00 0.00 0.00 65 1012.6
20260505121803 60 233 0.0 3.0 0.00 0.00 0.00 63 1012.6
20260505120905 60 359 0.0 3.0 0.00 0.00 0.00 63 1012.6
20260505120003 59 262 0.0 3.0 0.00 0.00 0.00 64 1012.7
20260505115403 59 140 0.0 3.0 0.00 0.00 0.00 65 1012.8
20260505114503 59 17 0.0 2.0 0.00 0.00 0.00 64 1012.6
20260505113603 58 298 0.0 2.0 0.00 0.00 0.00 65 1012.6
20260505112703 58 287 0.0 2.0 0.00 0.00 0.00 66 1012.7
20260505111803 58 18 0.0 2.0 0.00 0.00 0.00 67 1012.5
20260505111118 57 349 0.0 3.0 0.00 0.00 0.00 67 1012.6
20260505110218 57 225 0.0 2.0 0.00 0.00 0.00 67 1012.7
20260505101805 56 267 0.0 2.0 0.00 0.00 0.00 67 1012.7
20260505100903 56 274 0.0 2.0 0.00 0.00 0.00 67 1013.0
20260505100004 56 265 0.0 2.0 0.00 0.00 0.00 66 1012.8
20260505095405 56 260 0.0 2.0 0.00 0.00 0.00 67 1012.9
20260505094505 56 357 0.0 1.0 0.00 0.00 0.00 69 1012.9
20260505093603 56 243 0.0 1.0 0.00 0.00 0.00 68 1013.0
20260505092705 57 71 0.0 2.0 0.00 0.00 0.00 65 1013.0
20260505091803 57 0 0.0 0.0 0.00 0.00 0.00 65 1013.0